カタログに戻る

SEMI-1N

運用中科学VLEO
NORAD 66297·PAYLOAD·🇹🇷 Turkey

打ち上げ Nov 2, 2025 から Cape Canaveral Space Force Station

Loading…

次のパス (今後24時間)

TLE

最新Source: Space-Track

元期: Sep 14, 2026, 08:22 UTC

1 66297U 25248E   26257.34930184  .00004294  00000-0  19799-3 0  9992
2 66297  45.4061 359.5452 0009591 187.5725 172.5018 15.21800187 48137

AllMySatでSEMI-1Nをリアルタイム追跡

Download on the App Store